Airfield :
LOGIN :

Register | Disclaimer

   EN    FR    IT 

 










Legend :    VFR   Marginal VFR   IFR   Intensive IFR   Very Intensive IFR
Visi :
Ceiling :
>= 8 km
>= 3000ft
5 to 8 km
1000 to 3000 ft
1500m to 5 km
500 to 1000 ft
800 to 1500m
200 to 500 ft
< 800m
< 200 ft
Symbols :   Thunderstorms  Fog  Heavy snow  Heavy precipitations  Wind > 20 kt
SIGMETs :     Misc.  Thunderstorms  Icing  Turbulence  Mountain Waves  Volcanic Ashes






- Airport Elevation : 25 ft
- IATA code : TPS


LICT - Vincenzo Florio Trapani

CURRENT METAR :
  • 211755Z 15011KT 9999 FEW022 21/19 Q1018 RMK SCT VIS MIN 9999 WIND THR13 17010KT BLU

EXPIRED METARs :
  • 211655Z 16013KT 9999 FEW022 21/20 Q1018
  • 211555Z 17013KT 9999 FEW025 24/19 Q1018 RMK FEW VIS MIN 9999 WIND THR13 18014KT BLU

TAF TAF LICT
Valid from the 21 at 18:00 until the 22 at 03:00 UTC


211700Z 2118/2203 15012KT 9999 FEW020



MET'MAP, your aeronautical weather chart ! - Copyright ORBIFLY December 2007 - Disclaimer

ORBIFLY MET'MAP TEAM :

Programming & Development : Alexandra Zaïnal
Concept & original design : Baudouin d'Aumeries
Assistance for programming : Marc-Olivier Méhu
Technical & hardware support : Manuel Goepfert

Contact : metmap@orbifly.com




SOURCES & CREDITS :

   NOAA